Weather History for Kaiser, MO

Change the Weather History Date:

Saturday, March 9, 2013

  Actual Average Record
Temperature  
Mean Temperature 56 °F -  
Max Temperature 69 °F 51 °F 69 °F (2013)
Min Temperature 42 °F 31 °F 15 °F (2003)
Degree Days  
Heating Degree Days 10    
Growing Degree Days 6 (Base 50)    
Moisture  
Dew Point 39 °F    
Average Humidity 59    
Maximum Humidity 82    
Minimum Humidity 28    
Precipitation  
Precipitation 0.68 in - - ()
Sea Level Pressure  
Sea Level Pressure 29.90 in    
Wind  
Wind Speed 10 mph (SSE)    
Max Wind Speed 20 mph    
Max Gust Speed 28 mph    
Visibility 10 miles    
Events Thunderstorm    
Averages and records for this station are not official NWS values.
T = Trace of Precipitation, MM = Missing Value Source: NWS Daily Summary

Daily Weather History Graph

Daily Weather History Graph

Search for Another Location

Airport:

Trip Planner

Search our weather history database for the weather conditions in past years. The results will help you decide how hot, cold, wet, or windy it might be!

Date:

Astronomy

Mar. 09, 2013 Rise Set
Actual Time 6:29 AM CST 6:11 PM CST
Civil Twilight 6:03 AM CST 6:38 PM CST
Nautical Twilight 5:33 AM CST 7:08 PM CST
Astronomical Twilight 5:02 AM CST 7:39 PM CST
Moon 4:52 AM CST (3/9) 4:15 PM CST (3/9)
Length of Visible Light 12h 34m
Length of Day
11h 41m
Waning Crescent, 5% of the Moon is Illuminated
Mar 9
Waning Crescent
Mar 11
New
Mar 19
First Quarter
Mar 27
Full
Apr 2
Last Quarter

Hourly Weather History & Observations

Time (CST) Temp. Windchill Dew Point Humidity Pressure Visibility Wind Dir Wind Speed Gust Speed Precip Events Conditions
12:15 AM 46.4 °F 42.9 °F 30.2 °F 53% 30.11 in 10.0 mi South 6.9 mph - N/A   Overcast
12:35 AM 46.4 °F 41.5 °F 30.2 °F 53% 30.10 in 10.0 mi SSE 10.4 mph - N/A   Overcast
12:55 AM 48.2 °F - 30.2 °F 50% 30.11 in 10.0 mi South 11.5 mph - N/A   Overcast
1:15 AM 46.4 °F 41.5 °F 33.8 °F 62% 30.11 in 10.0 mi South 10.4 mph 16.1 mph 0.01 in   Overcast
1:35 AM 44.6 °F 39.7 °F 35.6 °F 71% 30.12 in 9.0 mi South 9.2 mph - 0.05 in   Overcast
1:55 AM 44.6 °F 39.7 °F 35.6 °F 71% 30.11 in 10.0 mi South 9.2 mph - 0.09 in   Overcast
2:15 AM 42.8 °F 38.0 °F 37.4 °F 81% 30.11 in 8.0 mi South 8.1 mph - 0.07 in   Overcast
2:35 AM 42.8 °F 38.0 °F 37.4 °F 81% 30.09 in 7.0 mi SE 8.1 mph - 0.11 in   Overcast
2:55 AM 42.8 °F 37.5 °F 37.4 °F 81% 30.07 in 7.0 mi SE 9.2 mph - 0.14 in   Overcast
3:15 AM 42.8 °F 39.3 °F 37.4 °F 81% 30.07 in 9.0 mi SE 5.8 mph - 0.02 in   Overcast
3:35 AM 42.8 °F 38.6 °F 37.4 °F 81% 30.06 in 8.0 mi SSE 6.9 mph - 0.04 in   Overcast
3:55 AM 42.8 °F 38.0 °F 37.4 °F 81% 30.06 in 7.0 mi SSE 8.1 mph - 0.05 in   Mostly Cloudy
4:15 AM 42.8 °F 38.6 °F 37.4 °F 81% 30.05 in 5.0 mi SE 6.9 mph - 0.09 in   Overcast
4:35 AM 42.8 °F 37.5 °F 37.4 °F 81% 30.04 in 6.0 mi SE 9.2 mph 16.1 mph 0.15 in   Overcast
4:55 AM 42.8 °F 37.5 °F 37.4 °F 81% 30.04 in 10.0 mi SE 9.2 mph - 0.15 in   Overcast
5:15 AM 42.8 °F 37.5 °F 37.4 °F 81% 30.03 in 10.0 mi SE 9.2 mph - N/A   Overcast
5:35 AM 42.8 °F 39.3 °F 37.4 °F 81% 30.04 in 6.0 mi SE 5.8 mph - 0.04 in   Overcast
5:55 AM 42.8 °F 37.0 °F 37.4 °F 81% 30.02 in 10.0 mi SE 10.4 mph - 0.05 in   Overcast
6:15 AM 42.8 °F 38.6 °F 37.4 °F 81% 30.02 in 10.0 mi SE 6.9 mph - N/A   Overcast
6:35 AM 42.8 °F 37.0 °F 37.4 °F 81% 30.02 in 10.0 mi SSE 10.4 mph - N/A   Overcast
6:55 AM 42.8 °F 37.5 °F 37.4 °F 81% 30.02 in 10.0 mi SE 9.2 mph - N/A   Overcast
7:15 AM 42.8 °F 37.0 °F 37.4 °F 81% 30.02 in 10.0 mi SSE 10.4 mph 16.1 mph N/A   Overcast
7:35 AM 42.8 °F 37.5 °F 37.4 °F 81% 30.02 in 10.0 mi SE 9.2 mph - N/A   Overcast
7:55 AM 44.6 °F 39.7 °F 35.6 °F 71% 30.01 in 10.0 mi SSE 9.2 mph - N/A   Overcast
8:15 AM 44.6 °F 39.7 °F 35.6 °F 71% 30.01 in 10.0 mi SSE 9.2 mph - N/A   Overcast
8:35 AM 44.6 °F 40.2 °F 35.6 °F 71% 29.99 in 10.0 mi SE 8.1 mph 16.1 mph N/A   Overcast
8:55 AM 44.6 °F 42.2 °F 35.6 °F 71% 29.99 in 10.0 mi SSE 4.6 mph - N/A   Overcast
9:15 AM 46.4 °F 42.9 °F 35.6 °F 66% 29.98 in 10.0 mi SE 6.9 mph - N/A   Overcast
9:35 AM 48.2 °F - 37.4 °F 66% 29.96 in 10.0 mi SSE 6.9 mph - N/A   Overcast
9:55 AM 53.6 °F - 39.2 °F 58% 29.95 in 10.0 mi South 10.4 mph 16.1 mph N/A   Mostly Cloudy
10:15 AM 55.4 °F - 37.4 °F 51% 29.95 in 10.0 mi South 12.7 mph 23.0 mph N/A   Clear
10:35 AM 57.2 °F - 39.2 °F 51% 29.94 in 10.0 mi South 11.5 mph - N/A   Clear
10:55 AM 59.0 °F - 39.2 °F 48% 29.93 in 10.0 mi SSW 11.5 mph 18.4 mph N/A   Clear
11:15 AM 60.8 °F - 37.4 °F 42% 29.93 in 10.0 mi South 15.0 mph 24.2 mph N/A   Clear
11:35 AM 62.6 °F - 37.4 °F 39% 29.92 in 10.0 mi South 12.7 mph 23.0 mph N/A   Clear
11:55 AM 64.4 °F - 35.6 °F 34% 29.90 in 10.0 mi South 16.1 mph 24.2 mph N/A   Clear
12:15 PM 66.2 °F - 33.8 °F 30% 29.88 in 10.0 mi SSE 15.0 mph 23.0 mph N/A   Clear
12:35 PM 66.2 °F - 33.8 °F 30% 29.86 in 10.0 mi South 13.8 mph 23.0 mph N/A   Clear
12:55 PM 66.2 °F - 37.4 °F 35% 29.85 in 10.0 mi South 17.3 mph 26.5 mph N/A   Clear
1:15 PM 68.0 °F - 35.6 °F 30% 29.84 in 10.0 mi South 18.4 mph 25.3 mph N/A   Clear
1:35 PM 68.0 °F - 37.4 °F 33% 29.82 in 10.0 mi SSW 19.6 mph 27.6 mph N/A   Mostly Cloudy
1:55 PM 66.2 °F - 37.4 °F 35% 29.82 in 10.0 mi SSW 19.6 mph 27.6 mph N/A   Overcast
2:15 PM 66.2 °F - 37.4 °F 35% 29.80 in 10.0 mi South 18.4 mph 26.5 mph N/A   Overcast
2:35 PM 66.2 °F - 37.4 °F 35% 29.80 in 10.0 mi South 17.3 mph 27.6 mph N/A   Overcast
2:55 PM 68.0 °F - 37.4 °F 33% 29.79 in 10.0 mi South 15.0 mph 24.2 mph N/A   Overcast
3:15 PM 68.0 °F - 37.4 °F 33% 29.78 in 10.0 mi South 12.7 mph 20.7 mph N/A   Overcast
3:35 PM 68.0 °F - 35.6 °F 30% 29.78 in 10.0 mi South 18.4 mph 26.5 mph N/A   Overcast
3:55 PM 69.8 °F - 35.6 °F 28% 29.77 in 10.0 mi South 11.5 mph 23.0 mph N/A   Overcast
4:15 PM 69.8 °F - 35.6 °F 28% 29.77 in 10.0 mi South 13.8 mph 18.4 mph N/A   Overcast
4:35 PM 68.0 °F - 39.2 °F 35% 29.77 in 10.0 mi South 11.5 mph 17.3 mph N/A   Overcast
4:55 PM 68.0 °F - 42.8 °F 40% 29.77 in 10.0 mi South 12.7 mph 23.0 mph N/A   Overcast
5:15 PM 68.0 °F - 42.8 °F 40% 29.76 in 10.0 mi South 13.8 mph 25.3 mph N/A   Overcast
5:35 PM 66.2 °F - 44.6 °F 46% 29.76 in 10.0 mi South 13.8 mph 20.7 mph N/A   Overcast
5:55 PM 66.2 °F - 44.6 °F 46% 29.77 in 10.0 mi South 18.4 mph 27.6 mph N/A   Overcast
6:15 PM 66.2 °F - 44.6 °F 46% 29.77 in 10.0 mi South 11.5 mph 19.6 mph N/A   Overcast
6:35 PM 66.2 °F - 46.4 °F 49% 29.77 in 10.0 mi South 11.5 mph 25.3 mph N/A   Overcast
6:55 PM 64.4 °F - 46.4 °F 52% 29.76 in 10.0 mi South 18.4 mph 23.0 mph N/A   Overcast
7:15 PM 64.4 °F - 46.4 °F 52% 29.75 in 10.0 mi South 12.7 mph 19.6 mph N/A   Overcast
7:35 PM 64.4 °F - 46.4 °F 52% 29.75 in 10.0 mi South 11.5 mph 17.3 mph N/A   Overcast
7:55 PM 64.4 °F - 44.6 °F 49% 29.74 in 10.0 mi South 11.5 mph 20.7 mph N/A   Overcast
8:15 PM 62.6 °F - 44.6 °F 52% 29.74 in 10.0 mi SSE 12.7 mph 18.4 mph N/A   Overcast
8:35 PM 62.6 °F - 42.8 °F 48% 29.75 in 10.0 mi South 18.4 mph 27.6 mph N/A   Overcast
8:55 PM 60.8 °F - 42.8 °F 52% 29.76 in 10.0 mi South 13.8 mph 20.7 mph N/A Thunderstorm Overcast
9:15 PM 59.0 °F - 44.6 °F 59% 29.79 in 10.0 mi South 15.0 mph 27.6 mph 0.02 in   Overcast
9:35 PM 55.4 °F - 48.2 °F 77% 29.79 in 10.0 mi South 9.2 mph 20.7 mph 0.05 in   Overcast
9:55 PM 55.4 °F - 48.2 °F 77% 29.78 in 10.0 mi SSE 8.1 mph - 0.09 in   Overcast
10:15 PM 55.4 °F - 48.2 °F 77% 29.78 in 10.0 mi SSE 5.8 mph - N/A   Overcast
10:35 PM 53.6 °F - 46.4 °F 77% 29.76 in 10.0 mi SSE 6.9 mph - 0.01 in   Overcast
10:55 PM 55.4 °F - 46.4 °F 72% 29.77 in 10.0 mi South 8.1 mph - 0.02 in   Overcast
11:15 PM 55.4 °F - 46.4 °F 72% 29.75 in 9.0 mi SSE 8.1 mph - N/A   Overcast
11:35 PM 55.4 °F - 46.4 °F 72% 29.75 in 9.0 mi South 8.1 mph - 0.02 in Thunderstorm Overcast
11:55 PM 53.6 °F - 48.2 °F 82% 29.75 in 7.0 mi South 10.4 mph - 0.09 in Thunderstorm Thunderstorm